Время (UTC), дата Ветер
(°,м/с) 
Видим.   Явления Облачность Т
(°С)
Тd
(°С)
f(%) Тe
(°С)
Pmin
(гПа)
dP
(гПа)
Po
(мм)
O2
(г/м3)
Тmin Tmax R s Состояние
почвы
00 01.10.11 200 (Ю) 10 км    10/0 средняя 
[Ac cast]
+6.2 +4.1 86 +7  1007.2  -2.6  745  293           
03 01.10.11 240 (ЮЗ) 10 км    10/0 средняя 
[Ac As]
+6.2 +2.8 79 +7  1004  -3.2  742  292           
06 01.10.11 190 (Ю) 10 км  слаб. дождь  10/10 600 м 
[Sc]
+6.2 +4.8 91 +7  1001.6  -2.3  740  291  +5.8         
09 01.10.11 200 (Ю) 10 км  дождь  10/10 300 м 
[Ns]
+6.9 +5.6 91 +8  999.8  -1.8  739  290           
12 01.10.11 180 (Ю) 10 км  слаб. дождь  10/10 300 м 
[Ns]
+7.4 +6.3 93 +8  998.3  -1.4  738  288           
15 01.10.11 160 (Ю) 10 км  слаб. дождь  10/10 300 м 
[Ns]
+7 +6.3 95 +8  997.8  -0.5  738  289           
18 01.10.11 150 (ЮВ) 10 км  слаб. дождь  10/10 300 м 
[Ns]
+7 +6.6 97 +7  996.3  -1.4  737  288    +7.4     
21 01.10.11 110 (В) 10 км  слаб. дождь  10/10 300 м 
[Ns]
+6.6 +6.4 99 +8  996.2  -0.2  736  289           
00 02.10.11 080 (В) 10 км  слаб. дождь  10/10 300 м 
[Ns]
+6.4 +6.2 99 +7  996.3  0.1  737  289           
03 02.10.11 050 (СВ) 10 км  слаб. дождь  10/10 300 м 
[Ns]
+6.4 +5.3 93 +6  996.4  0.1  737  289           
06 02.10.11 050 (СВ) >10 км  {дождь}  9/4 1000 м средняя 
[Sc|Ac cast]
+7.5 +6 90 +8  996.6  0.3  737  288  +6.4       
09 02.10.11 020 (С) >10 км    10/10 300 м 
[St]
+7.8 +5.6 86 +8  997.6  0.9  737  288           
12 02.10.11 360 (С) >10 км    8/5 600 м средняя 
[Cu med, cong|Ac lent]
+8.2 +4.6 78 +9  997.8  0.2  738  288           
15 02.10.11 040 (СВ) 10 км    10/8 1000 м кучево-дожд., средняя 
[Cb calv|Ac cast]
+8 +5.3 83 +9  998.8  738  288           
18 02.10.11 060 (СВ) 10 км  слаб. дождь  10/10 300 м 
[Frnb]
+7.6 +6.1 90 +8  999.2  0.4  739  289    +9.8  0.6     
21 02.10.11 030 (СВ) 10 км  {дождь}  10/10 300 м 
[Frnb]
+7.3 +6 91 +8  999.1  -0.1  739  289           
00 03.10.11 020 (С) 10 км  в посл. час дождь  10/10 300 м 
[Frnb]
+7.2 +6.1 93 +7  999.2  0.1  739  289           
03 03.10.11 010 (С) 10 км  слаб. дождь  10/10 300 м 
[Ns]
+7.4 +6.7 95 +7  999.2  739  289           
06 03.10.11 020 (С) 10 км  слаб. морось{дождь}  10/10 300 м 
[St]
+8 +7.1 94 +8  999.5  0.3  739  288  +7.2       
09 03.10.11 020 (С) 10 км  слаб. морось{дождь}  10/10 200 м 
[St]
+8.4 +7.3 93 +8  1000.5  740  288           
12 03.10.11 020 (С) 10 км  {дождь, морось}  10/10 300 м 
[St]
+8.4 +7.3 93 +8  1001.4  0.9  740  288           
15 03.10.11 020 (С) 10 км    10/10 200 м 
[St]
+7.8 +6.7 93 +8  1002.9  1.4  741  289           
18 03.10.11 350 (С) 10 км    10/10 300 м 
[Sc]
+7.6 +6.1 90 +9  1003.6  0.7  742  290    +8.4     
21 03.10.11 010 (С) 10 км    10/10 300 м 
[Sc]
+7.3 +6.2 93 +8  1003.7  0.1  742  290           
00 04.10.11 350 (С) 10 км    10/10 300 м 
[St]
+7 +5.9 93 +8  1003.9  0.1  742  291           
03 04.10.11 020 (С) 10 км    10/10 300 м 
[St]
+6.8 +5.2 90 +8  1004.2  0.3  742  291           
06 04.10.11 010 (С) >10 км    10/10 600 м 
[Sc]
+7.4 +5.8 90 +8  1005.4  1.3  743  291  +6.8         
09 04.10.11 000 (С) 85  0100 м    10/10 200 м 
[Sc]
+5.4   1005.7  0.3  743             
12 04.10.11 330 (СЗ) >10 км    10/10 600 м 
[Sc]
+8.5 +4.9 78 +10  1005.9  0.2  744  290           
15 04.10.11 330 (СЗ) 10 км    10/10 600 м 
[Sc]
+7.7 +4 77 +9  1006.9  744  291           
18 04.10.11 340 (С) 10 км    10/10 600 м 
[Sc]
+6.2 +4.1 86 +7  1007.5  0.5  745  293    +9.4       
21 04.10.11 310 (СЗ) 10 км    10/10 600 м 
[Sc]
+5.7 +3.6 86 +7  1007.4  -0.1  745  293           
00 05.10.11 270 (З) 10 км    10/10 600 м 
[Sc]
+5.5 +3.1 84 +6  1007.3  -0.1  745  294           
03 05.10.11 270 (З) 10 км    10/10 600 м 
[Sc]
+5.6 +3.2 84 +6  1007.4  0.1  745  294           
06 05.10.11 200 (Ю) 10 км    10/10 600 м 
[Sc]
+5.5 +4.1 91 +6  1007  -0.4  744  293  +5.2         
09 05.10.11 190 (Ю) >10 км  {дождь}  10/10 600 м 
[Sc]
+7.4 +3.9 78 +8  1006.2  -0.7  744  291           
12 05.10.11 180 (Ю) >10 км  слаб. дождь  10/10 600 м 
[Sc]
+7 +5 87 +7  1004.9  -1.4  743  291           
15 05.10.11 170 (Ю) 10 км  {дождь}  10/10 600 м 
[Sc]
+7.6 +6.3 91 +8  1003.3  -1.5  742  290           
18 05.10.11 210 (ЮЗ) 4000 м  слаб. морось{дождь}  10/10 600 м 
[Sc]
+8.9 +8.1 95 +10  1000.9  -2.2  740  287    +7.6  0.0     
21 05.10.11 230 (ЮЗ) 4000 м  дождь{морось}  10/10 200 м 
[Ns]
+9.6 +8.8 95 +10  997.8  -3.1  738  286           
00 06.10.11 270 (З) 10 км  в посл. час дождь{морось}  10/10 600 м 
[Sc]
+10.7 +9.9 95 +13  996.5  1.1  737  284           
03 06.10.11 290 (З) 10 км    10/10 600 м 
[Sc]
+10.1 +7.4 83 +10  998  1.3  738  285           
06 06.10.11 290 (З) >10 км    9/8 300 м средняя 
[St|Ac cast]
+9.9 +7.2 83 +9  1000  739  286  +7.6       
09 06.10.11 290 (З) >10 км    10/8 1000 м средняя 
[Sc|Ac cuf]
+9.8 +5.4 74 +9  1002.2  2.1  741  287           
12 06.10.11 300 (СЗ) >10 км    10/10 1000 м 
[Sc]
+10.4 +4.9 69 +10  1003.8  1.6  742  287           
15 06.10.11 280 (З) >10 км    10/10 600 м 
[Sc]
+9.6 +4.7 72 +10  1005.9  2.1  744  289           
18 06.10.11 290 (З) 10 км    8/0 средняя 
[Ac lent]
+8.8 +5.3 79 +9  1007.2  1.2  745  290    +10.9       
21 06.10.11 270 (З) 10 км    8/0 средняя 
[Ac lent]
+8 +5.1 82 +9  1008.4  1.2  746  291           
00 07.10.11 270 (З) 10 км    10/0 средняя 
[Ac und]
+6.4 +4.6 88 +7  1009.8  1.3  746  293           
03 07.10.11 230 (ЮЗ) 10 км    8/4 1000 м средняя 
[Sc|Ac lent]
+6 +4.4 90 +7  1011  1.2  747  294           
06 07.10.11 260 (З) >10 км    ясно 
+7.8 +4.4 79 +9  1011.8  0.9  748  292  +5.3         
09 07.10.11 250 (З) >10 км    10/0 средняя 
[As op]
+11.1 +6 71 +11  1011.6  748  289           
12 07.10.11 250 (З) >10 км    10/0 средняя 
[As op]
+12.5 +6.7 68 +12  1011.4  -0.1  748  287           
15 07.10.11 тихо ()   10 км    4/0 верхняя 
[Ci fib]
+11.4 +7.9 79 +11  1011.5  748  288           
18 07.10.11 160 (Ю) 10 км    6/0 верхняя 
[Ci]
+9.9 +6.7 81 +11  1012.4  0.7  749  290    +12.7       
21 07.10.11 180 (Ю) 10 км    4/0 средняя 
[Ac lent]
+9 +6.2 83 +10  1013.2  0.8  749  291           
00 08.10.11 160 (Ю) 10 км    ясно 
+8.2 +6.5 89 +9  1013.3  749  292           
03 08.10.11 160 (Ю) >10 км    4/0 средняя 
[Ac lent]
+7.3 +5.7 90 +8  1013.4  0.1  749  293           
06 08.10.11 180 (Ю) >10 км    10/10 600 м 
[Sc]
+10.2 +7 81 +11  1013.3  749  290  +6.7         
09 08.10.11 200 (Ю) >10 км    4/0 средняя, верхняя 
[Ac lent|Ci fib]
+15.8 +8.1 60 +17  1013.3  0.3  749  284           
12 08.10.11 190 (Ю) >10 км    1/0 средняя 
[Ac lent]
+16 +8.6 61 +17  1013.8  0.5  750  284           
15 08.10.11 160 (Ю) 10 км    6/6 600 м 
[Sc]
+13.4 +9.1 75 +15  1014.2  0.3  750  286           
18 08.10.11 160 (Ю) 10 км    6/0 средняя 
[Ac trans]
+11.9 +9.3 84 +13  1014.5  0.2  750  288    +16.2       
21 08.10.11 160 (Ю) 10 км    8/0 верхняя 
[Ci fib]
+12 +10.1 88 +14  1015.7  1.2  751  288           
00 09.10.11 170 (Ю) 10 км    8/0 средняя 
[Ac cast]
+11.2 +9.6 90 +13  1017.2  1.4  752  289           
03 09.10.11 180 (Ю) 10 км    10/0 средняя, верхняя 
[Ac cast|Ci fib]
+11.2 +9.2 87 +12  1018.5  1.3  753  290           
06 09.10.11 200 (Ю) >10 км    1/0 средняя 
[Ac lent]
+13.1 +9.8 80 +15  1020  1.6  754  288    +10.8       
09 09.10.11 190 (Ю) >10 км    1/0 средняя 
[Ac lent]
+16.8 +9.3 61 +17  1020.5  0.7  755  285           
12 09.10.11 200 (Ю) 3-10{10}  >10 км    3/0 средняя 
[Ac lent]
+17.7 +6.1 47 +18  1020.7  0.2  755  285           
15 09.10.11 200 (Ю) >10 км    3/0 средняя 
[Ac lent]
+14 +7.5 65 +15  1021  0.1  755  288           
18 09.10.11 210 (ЮЗ) 10 км    ясно 
+12 +6.1 67 +12  1021.5  0.4  755  291    +18.3       
21 09.10.11 170 (Ю) 10 км    ясно 
+10 +6.4 78 +11  1021.2  -0.4  755  292           
00 10.10.11 180 (Ю) 10 км    4/0 средняя, верхняя 
[Ac lent|Ci fib]
+8.9 +6.8 87 +10  1020.9  -0.4  755  293           
03 10.10.11 170 (Ю) >10 км    9/0 средняя 
[Ac lent]
+8.7 +6.8 88 +10  1020.7  -0.2  755  294           
06 10.10.11 190 (Ю) >10 км    8/3 1000 м средняя, верхняя 
[Sc|Ac lent|Ci fib]
+10.6 +7.7 82 +11  1020.6  755  291  +8.7         
09 10.10.11 220 (ЮЗ) >10 км    10/0 средняя, верхняя 
[Ac lent|Ci fib]
+16.8 +8.9 60 +18  1020  -0.3  754  285           
12 10.10.11 190 (Ю) >10 км    10/0 верхняя 
[Cc]
+17.3 +9 58 +18  1019.5  -0.4  754  284           
15 10.10.11 160 (Ю) 10 км    4/3 1000 м средняя 
[Sc diur, vesp|Ac lent]
+14.4 +8.2 66 +15  1018.2  -1.5  753  287           
18 10.10.11 160 (Ю) 10 км    10/0 средняя 
[As trans]
+14.3 +8.6 69 +14  1016.2  -1.9  752  286    +17.7       
21 10.10.11 150 (ЮВ) 10 км    10/0 средняя 
[Ac und]
+13.6 +8.6 72 +14  1014.8  -1.5  750  287           
00 11.10.11 170 (Ю) 10 км  слаб. дождь  10/10 1000 м 
[Sc]
+14 +10 77 +16  1013.1  -1.6  749  285           
03 11.10.11 170 (Ю) 10 км  слаб. дождь  10/10 200 м 
[St]
+12.6 +10.1 85 +14  1011.5  -1.6  748  286           
06 11.10.11 180 (Ю) 10 км  {дождь}  10/10 600 м 
[Sc]
+12.3 +9.6 84 +14  1010.9  -0.6  748  286  +11.9       
09 11.10.11 190 (Ю) 2-12{12}  10 км  {ливн. осадки}  9/3 600 м кучево-дожд., средняя 
[Cb cap|Ac cast]
+13.3 +10 80 +15  1009.3  -1.5  746  285           
12 11.10.11 190 (Ю) 3-10{12}  10 км  {ливн. осадки}  10/10 600 м 
[Sc]
+13.2 +8.8 75 +13  1008.4  -0.9  746  285           
15 11.10.11 190 (Ю) 10 км    9/9 600 м 
[Sc]
+13.8 +8 68 +14  1007.3  -1.1  745  284           
18 11.10.11 190 (Ю) 10 км    10/10 600 м 
[Sc]
+13.1 +8.3 73 +14  1006.7  -0.6  744  285    +14.4     
21 11.10.11 190 (Ю) 10 км    10/10 600 м 
[Sc]
+13.3 +9.8 79 +16  1006.3  -0.4  744  284           
00 12.10.11 240 (ЮЗ) 10 км    10/0 средняя 
[Ac cast]
+13.1 +8.3 73 +14  1006.6  0.3  744  285           
03 12.10.11 180 (Ю) 10 км  в посл. час дождь  10/10 600 м 
[Sc]
+11.2 +8.6 84 +12  1007.1  0.4  745  287           
06 12.10.11 250 (З) >10 км  {дождь}  10/0 средняя 
[Ac cast]
+11.6 +7.5 76 +13  1008.4  1.3  746  287  +11.2    0.0     
09 12.10.11 260 (З) >10 км    10/10 600 м 
[Sc]
+12.8 +7.5 70 +13  1008.6  0.2  746  286           
12 12.10.11 210 (ЮЗ) >10 км    10/10 600 м 
[Sc]
+13.2 +7.5 68 +14  1008.5  746  285           
15 12.10.11 160 (Ю) 10 км    10/10 600 м 
[Sc]
+12.1 +7.8 75 +13  1008.1  0.5  745  286           
18 12.10.11 170 (Ю) 10 км  слаб. дождь  10/10 1000 м 
[Sc]
+10.8 +6.8 76 +12  1007.8  -0.4  745  288    +13.2       
21 12.10.11 140 (ЮВ) 4000 м  дождь  10/10 200 м 
[Frnb|Ns]
+9.9 +9.3 96 +11  1005.2  -2.6  743  287           
00 13.10.11 130 (ЮВ) 4000 м  дождь  10/10 200 м 
[Frnb|Ns]
+10.5 +9.9 96 +12  1002.7  -2.5  741  286           
03 13.10.11 160 (Ю) 10 км  слаб. дождь  10/10 600 м 
[Sc]
+11.2 +9.2 87 +10  999.6  -2.9  739  284           
06 13.10.11 170 (Ю) 10 км  слаб. дождь  10/10 600 м 
[Sc]
+11.6 +7.2 74 +11  998.9  -0.7  739  284  +9.4    22     
09 13.10.11 160 (Ю) 10 км  слаб. дождь  10/10 600 м 
[Sc]
+11.3 +8.9 85 +11  997.8  -1.1  738  284           
12 13.10.11 200 (Ю) 10 км  дождь  10/10 300 м 
[Ns]
+11.1 +9.9 92 +12  998.7  0.9  738  284           
15 13.10.11 300 (СЗ) 10 км  дождь  10/10 300 м 
[Ns]
+10.6 +9.4 92 +11  1000.3  1.5  740  285           
18 13.10.11 260 (З) 10 км  в посл. час дождь  10/10 600 м 
[Sc]
+10 +8.6 91 +10  1002  1.6  741  286    +11.6  12     
21 13.10.11 300 (СЗ) 10 км    10/10 600 м 
[Sc]
+7.5 +5.5 87 +7  1004.6  2.5  743  290           
00 14.10.11 280 (З) 10 км    3/0 средняя 
[Ac lent]
+6.2 +3.9 85 +6  1006.5  1.8  744  293           
03 14.10.11 250 (З) 10 км    ясно 
+5 +3.3 89 +6  1007.9  1.3  745  294           
06 14.10.11 260 (З) >10 км    9/9 300 м 
[St]
+5.9 +3.5 85 +5  1010.4  2.6  747  294  +4.3       
09 14.10.11 240 (ЮЗ) >10 км    9/8 600 м средняя 
[Sc|Ac cast]
+6 +1.5 73 +5  1012.4  1.9  748  295           
12 14.10.11 270 (З) >10 км    3/3 600 м 
[Cu med, cong]
+8 +1.1 62 +7  1013.4  1.1  749  293           
15 14.10.11 250 (З) 10 км    8/3 1000 м средняя 
[Sc diur, vesp|Ac cast]
+6.3 +1 69 +7  1015.3  1.8  751  295           
18 14.10.11 270 (З) 10 км    9/9 600 м 
[Sc]
+6.2 -0.6 62 +6  1016.3  751  296    +8.7       
21 14.10.11 260 (З) 10 км    10/10 600 м 
[Sc]
+3.8 +0.7 80 +3  1016.3  751  298           
00 15.10.11 тихо ()   10 км    9/9 1000 м 
[Sc]
+4 +1.2 82 +4  1018  1.5  752  299           
03 15.10.11 230 (ЮЗ) 10 км    9/9 600 м 
[Sc]
+3.5 +0.9 83 +3  1019  753  299           
06 15.10.11 250 (З) 10 км    10/10 600 м 
[Sc]
+4.2 +1.4 82 +5  1019.9  0.9  754  299  +3.2         
09 15.10.11 270 (З) 10 км    10/10 600 м 
[Sc]
+5.8 +1.3 73 +6  1020.8  755  298           
12 15.10.11 250 (З) 10 км    9/9 600 м 
[Sc]
+6.8 +0.1 62 +8  1021.1  0.3  755  297           
15 15.10.11 тихо ()   10 км  {ливн. осадки}  5/5 600 м 
[Sc]
+4.7 +2.2 84 +5  1021.7  0.5  755  299           
18 15.10.11 280 (З) 10 км  {ливн. осадки}  10/0 средняя 
[Ac cast]
+4.8 +1.2 77 +6  1022.3  0.6  756  299    +6.8  0.5     
21 15.10.11 010 (С) 10 км    4/0 средняя 
[Ac cast]
+2.9 +1.3 89 +4  1022.7  0.2  756  301           
00 16.10.11 320 (СЗ) 10 км    6/0 средняя 
[Ac cast]
+2.5 +0.6 87 +3  1023  0.3  756  302           
03 16.10.11 310 (СЗ) 10 км    10/0 средняя 
[Ac cast]
+1.3 +0.5 94 +2  1024  0.9  757  303           
06 16.10.11 310 (СЗ) >10 км    10/9 600 м 
[Sc]
+1.9 -0.9 82 +3  1024.7  0.8  757  303  +1.1         
09 16.10.11 290 (З) >10 км    10/10 600 м 
[Sc]
+2.7 -1.8 72 +3  1025  0.3  758  302           
12 16.10.11 290 (З) >10 км  {снег}  10/10 600 м 
[Sc]
+2.8 -2.4 69 +4  1025.1  0.1  758  302           
15 16.10.11 280 (З) 10 км  слаб. снег  10/10 600 м 
[Sc]
+2.9 -1.3 74 +2  1025.1  758  302           
21 16.10.11 310 (СЗ) 10 км    9/0 средняя 
[Ac cast]
+1.8 -1 82 +1  1025.8  0.2  758  304           
00 17.10.11 250 (З) 10 км    1/0 средняя 
[Ac cast]
+1.4 -0.3 88 +2  1026.4  0.6  759  304           
03 17.10.11 240 (ЮЗ) 10 км    3/0 средняя 
[Ac cast]
-0.3 -1.8 89 1027.2  0.7  759  306           
06 17.10.11 250 (З) >10 км    10/10 1000 м 
[Sc]
+1.3 -1.3 83 +1  1027.7  0.5  759  305  -0.3         
09 17.10.11 210 (ЮЗ) >10 км    10/10 600 м 
[Sc]
+3.4 -0.7 74 +3  1028.1  0.5  760  302           
12 17.10.11 250 (З) >10 км    10/10 600 м 
[Sc]
+4.4 -0.4 71 +4  1028.2  0.2  760  301           
15 17.10.11 250 (З) 10 км    10/10 600 м 
[Sc]
+4.7 +0 72 +6  1028.4  0.2  760  301           
18 17.10.11 290 (З) 10 км  слаб. дождь  10/10 600 м 
[Sc]
+4.6 +1 77 +5  1029  0.6  761  301    +4.7       
21 17.10.11 260 (З) 10 км  {дождь}  10/10 600 м 
[Sc]
+8.3   1029.6  0.6  761             
00 18.10.11 250 (З) 10 км  слаб. дождь  9/9 600 м 
[Sc]
+4 +1.7 85 +5  1029.5  -0.1  761  302           
03 18.10.11 260 (З) 10 км  слаб. дождь  10/10 600 м 
[Sc]
+2.7 +0.9 88 +3  1029.8  0.2  761  304           
06 18.10.11 250 (З) >10 км  {дождь}  10/10 1000 м 
[Sc]
+4.8 +1.5 79 +4  1030.2  0.5  761  301  +2.7    0.8     
09 18.10.11 260 (З) >10 км    10/10 1000 м 
[Sc]
+6.2 +0.6 67 +6  1030.3  0.2  762  300           
12 18.10.11 190 (Ю) >10 км    10/10 1000 м 
[Sc]
+7.6 +0.9 63 +9  1029.3  -0.9  761  298           
15 18.10.11 150 (ЮВ) 10 км    3/3 1000 м 
[Sc diur, vesp]
+5.2 +0.9 74 +5  1029.5  761  301           
18 18.10.11 160 (Ю) 10 км    ясно 
+3.7 +0.8 81 +5  1029.1  -0.4  761  302    +7.8       
21 18.10.11 150 (ЮВ) 10 км    ясно 
+2.2 +0 85 +3  1028.9  -0.3  760  304           
00 19.10.11 тихо ()   10 км    ясно 
+1.6 +0 89 +2  1029.2  0.3  761  305           
03 19.10.11 150 (ЮВ) 10 км    10/0 средняя, верхняя 
[Ac lent|Ci fib]
+1.7 -0.2 87 +2  1028.8  -0.4  760  304           
06 19.10.11 150 (ЮВ) 10 км    9/9 600 м 
[Sc]
+3.6 +0.4 80 +4  1028.7  760  302  +1.3         
09 19.10.11 160 (Ю) 10 км    9/9 600 м 
[Sc]
+5.9 -0.1 65 +6  1027.9  -0.7  760  300           
12 19.10.11 150 (ЮВ) 10 км    9/9 600 м 
[Sc]
+6.2 -0.9 60 +6  1026.5  -1.4  759  299           
15 19.10.11 130 (ЮВ) 10 км    9/0 средняя 
[Ac cast]
+4.8 -0.2 70 +6  1026  -0.6  758  300           
18 19.10.11 150 (ЮВ) 10 км    9/0 средняя 
[Ac cast]
+3.9 +0.2 77 +5  1025.1  -0.9  758  301    +6.4       
21 19.10.11 120 (ЮВ) 10 км    ясно 
+2.5 -0.5 81 +3  1024.3  -0.9  757  302           
00 20.10.11 160 (Ю) 10 км    6/0 средняя 
[Ac cast]
+3.1 -0.1 79 +4  1024.1  -0.2  757  302           
03 20.10.11 150 (ЮВ) 10 км    9/3 600 м средняя 
[Sc|Ac cast]
+3.1 -0.1 79 +3  1023.4  -0.7  756  301           
06 20.10.11 170 (Ю) >10 км    8/0 средняя 
[Ac cast]
+4.9 +1.6 79 +6  1024.2  0.9  757  299    +2.2       
09 20.10.11 160 (Ю) >10 км  слаб. дождь  10/10 600 м 
[Sc]
+6.6 +1.9 72 +6  1023.7  -0.4  757  297           
12 20.10.11 210 (ЮЗ) >10 км  {дождь}  8/3 600 м средняя 
[Sc|Ac cast]
+9.2 +2.9 65 +10  1023.4  757  295           
15 20.10.11 170 (Ю) 10 км    9/9 600 м 
[Sc]
+7.6 +3.6 76 +9  1024.1  0.6  757  296           
18 20.10.11 160 (Ю) 10 км    8/0 средняя 
[Ac As]
+5.4 +3.7 89 +6  1024.7  0.4  757  299    +9.7  0.0     
21 20.10.11 160 (Ю) 10 км    1/0 средняя 
[Ac cast]
+4.2 +3 92 +5  1025.1  0.3  758  300           
00 21.10.11 160 (Ю) 10 км    9/0 средняя 
[Ac cast]
+4.8 +3.8 93 +6  1025.3  0.2  758  299           
03 21.10.11 180 (Ю) 4000 м  дымка  8/0 средняя 
[Ac cast]
+4.6 +4.1 96 +5  1025.3  758  300           
06 21.10.11 160 (Ю) 4000 м  дымка  10/10 200 м 
[St]
+7.4 +6.5 94 +8  1024.9  -0.1  758  296  +3.6         
09 21.10.11 180 (Ю) 10 км  {морось}  10/10 600 м 
[Sc]
+9.4 +7.7 89 +10  1023.9  -0.9  757  294           
12 21.10.11 160 (Ю) 10 км  {морось}  10/10 600 м 
[Sc]
+10.6 +7.9 83 +12  1023  -0.9  756  292           
15 21.10.11 170 (Ю) 10 км    10/6 600 м средняя 
[Sc|Ac cast]
+10.4 +6.1 75 +12  1022.4  -0.6  756  292           
18 21.10.11 тихо ()   10 км    8/8 600 м 
[Sc]
+9.9 +3.5 64 +10  1022  -0.4  756  293    +11.5  0.0     
21 21.10.11 200 (Ю) 10 км    9/9 600 м 
[Sc]
+9.2 +2.3 62 +10  1021.5  -0.6  755  294           
00 22.10.11 тихо ()   10 км    8/8 1000 м 
[Sc]
+8.6 +2.1 64 +9  1021  -0.5  755  295           
03 22.10.11 240 (ЮЗ) 10 км  слаб. дождь  10/10 600 м 
[Sc]
+7.4 +5.8 90 +8  1021.9  0.9  755  295           
06 22.10.11 300 (СЗ) >10 км  {дождь, морось}  10/10 300 м 
[Frnb]
+6.9 +5.6 91 +7  1023.1  756  296  +6.9    0.8     
09 22.10.11 300 (СЗ) >10 км  {дождь, морось}  8/3 600 м средняя, верхняя 
[Cu med, cong|Ac lent|Ci fib]
+8.1 +3.4 72 +8  1023.2  0.3  756  296           
12 22.10.11 290 (З) >10 км    3/3 1000 м 
[Cu med, cong]
+8.9 -1.5 48 +8  1023.4  0.2  757  295           
15 22.10.11 300 (СЗ) 10 км    8/3 1000 м средняя 
[Sc diur, vesp|Ac lent]
+7.4 +1.5 66 +7  1023.9  0.5  757  297           
18 22.10.11 260 (З) 10 км    6/0 средняя 
[Ac cast]
+5.3 +2.3 81 +6  1024.3  0.2  757  299    +9.3  0.6     
21 22.10.11 240 (ЮЗ) 10 км    9/0 средняя 
[Ac cast]
+4.1 +1 80 +5  1024.7  0.3  757  300           
00 23.10.11 180 (Ю) 10 км    9/0 средняя 
[Ac cast]
+3.9 +0.2 77 +5  1024.3  -0.4  757  301           
03 23.10.11 250 (З) 10 км    9/0 средняя 
[Ac cast]
+2.8 +0.1 82 +4  1023.7  -0.7  757  302           
06 23.10.11 250 (З) 10 км    8/0 средняя, верхняя 
[Ac lent|Ci sp]
+3.9 -0.1 75 +3  1022.9  -0.7  756  300  +2.1         
09 23.10.11 250 (З) 10 км    9/3 600 м средняя 
[Sc|Ac As]
+6 -0.6 63 +4  1021.8  -0.9  755  298           
12 23.10.11 230 (ЮЗ) 10 км    10/9 600 м 
[Sc]
+6 +0.4 67 +7  1020.4  -1.4  754  297           
15 23.10.11 240 (ЮЗ) 10 км  слаб. дождь  10/10 300 м 
[Frnb|Ns]
+3.7 +2.2 90 +2  1020.1  -0.4  754  299           
18 23.10.11 290 (З) 10 км    10/10 300 м 
[Frnb]
+3.9 +2.4 90 +3  1019.2  -0.9  753  299    +6.4  0.6     
21 23.10.11 300 (СЗ) 10 км  слаб. морось{дождь}  10/10 200 м 
[Frnb]
+3.7 +2.7 93 +5  1018.9  -0.3  753  299           
00 24.10.11 330 (СЗ) 4000 м  дождь{морось}  10/10 200 м 
[Frnb|Ns]
+3.6 +2.3 91 +4  1019  0.1  753  299           
03 24.10.11 360 (С) 10 км  {дождь}  10/10 300 м 
[Frnb]
+2.8 +1.2 89 +2  1019.9  0.8  754  300           
06 24.10.11 010 (С) >10 км  {дождь}  10/10 300 м 
[Frnb]
+2.9 +1.1 88 +4  1021.2  1.3  755  301  +2.7       
09 24.10.11 350 (С) >10 км  слаб. дождь  10/10 600 м 
[Sc]
+3 +0.9 86 +2  1022.2  755  301           
12 24.10.11 340 (С) >10 км  {дождь}  10/10 600 м 
[Sc]
+3.8 -0.2 75 +3  1023.2  756  301           
15 24.10.11 020 (С) 10 км    9/9 600 м 
[Sc]
+2.8 -2.4 69 +2  1024.3  757  302           
18 24.10.11 360 (С) 10 км    9/9 600 м 
[Sc]
+2.2 -1.5 77 +2  1024.8  0.5  757  303    +3.8  0.0     
21 24.10.11 010 (С) 10 км    9/9 600 м 
[Sc]
+1.9 +0 87 +1  1025.6  0.8  758  303           
00 25.10.11 020 (С) 10 км    9/9 300 м 
[Sc]
+1.6 -1.5 80 +1  1025.8  0.2  758  304           
03 25.10.11 020 (С) 10 км    10/10 300 м 
[St]
+1.3 -1.3 83 +1  1026.7  0.8  759  304           
06 25.10.11 350 (С) >10 км    10/10 600 м 
[Sc]
+0.9 -2.3 79 -1  1027.8  759  305  +0.9         
09 25.10.11 010 (С) >10 км    9/9 600 м 
[Sc]
+1.3 -2.5 76 1028  0.2  760  305           
12 25.10.11 010 (С) >10 км    9/9 600 м 
[Sc]
+1.5 -4.3 65 1027.9  -0.1  760  305           
15 25.10.11 010 (С) 10 км    8/3 600 м средняя 
[Sc|Ac cast]
+0.4 -5.4 65 1028  0.1  760  306           
18 25.10.11 040 (СВ) 10 км    4/4 600 м 
[Sc]
-1.8 -6.7 69 -4  1029  0.9  760  309    +1.8       
21 25.10.11 030 (СВ) 10 км    3/3 600 м 
[Sc]
-2.7 -6.8 73 -2  1029.3  0.2  760  310           
00 26.10.11 030 (СВ) 10 км    9/9 600 м 
[Sc]
-2.4 -6 76 -3  1029.4  0.1  761  310           
03 26.10.11 030 (СВ) 10 км    9/9 600 м 
[Sc]
-3.3 -6.5 78 -4  1029.3  -0.1  760  311           
06 26.10.11 010 (С) >10 км    10/0 верхняя 
[Ci fib]
-3 -6.4 77 -4  1029.9  0.6  761  311  -4         
09 26.10.11 340 (С) >10 км    10/0 верхняя 
[Cs]
+0 -5.7 65 +1  1028.9  -0.7  760  307           
12 26.10.11 300 (СЗ) >10 км    10/0 верхняя 
[Cs]
+0.3 -5.3 66 -1  1027.9  -1.1  760  306           
15 26.10.11 300 (СЗ) 10 км    10/0 средняя 
[Ac und]
-0.6 -5.8 68 -1  1027.6  -0.3  759  307           
18 26.10.11 300 (СЗ) 10 км    10/0 средняя 
[As op]
-0.2 -5.2 69 -1  1026.7  -0.8  759  307    +1       
21 26.10.11 300 (СЗ) 10 км  слаб. снег  10/10 600 м 
[Sc]
-0.6 -2.7 86 -1  1025.7  -1.1  758  306           
00 27.10.11 300 (СЗ) 10 км  слаб. снег  10/10 600 м 
[Sc]
+0 -1.1 92 -1  1024.5  -1.1  757  305           
03 27.10.11 310 (СЗ) 10 км  {снег}  10/10 600 м 
[Sc]
+0.8 -0.3 92 1024.7  0.2  757  304           
06 27.10.11 320 (СЗ) 10 км  {снег}  9/9 600 м 
[Sc]
+2.1 -0.4 84 +1  1024.9  0.3  757  303  -0.7    0.0     
09 27.10.11 320 (СЗ) 10 км  слаб. ливневой дождь  10/10 600 м кучево-дожд. 
[Cb cap]
+3.2 -0.6 76 +2  1024.8  -0.1  757  302           
12 27.10.11 320 (СЗ) 10 км  {ливн. осадки}  9/9 600 м 
[Sc]
+3.5 -1.2 71 +2  1024.7  757  301           
15 27.10.11 330 (СЗ) 10 км    10/10 600 м 
[Sc]
+3.1 -2.7 66 +3  1025.2  0.4  758  302           
18 27.10.11 360 (С) 2{10}  10 км    10/10 600 м 
[Sc]
+2.4 -3.9 63 +2  1025.8  0.6  758  303    +3.8  0.0     
21 27.10.11 350 (С) 10 км    10/10 600 м 
[Sc]
+1.5 -4.7 63 +1  1026.1  0.2  758  304           
00 28.10.11 350 (С) 10 км    10/10 1000 м 
[Sc]
+0.6 -5.1 66 1026.5  0.4  759  306           
03 28.10.11 350 (С) 10 км    10/10 600 м 
[Sc]
+0.3 -5.1 67 1027.9  1.3  760  306           
06 28.10.11 350 (С) >10 км    10/10 600 м 
[Sc]
+0.5 -6 62 1028.9  760  306  +0.3         
09 28.10.11 020 (С) >10 км    10/10 600 м 
[Sc]
+1.5 -4.7 63 +1  1029.6  0.7  761  305           
12 28.10.11 340 (С) >10 км    10/10 600 м 
[Sc]
+1.6 -5 61 +1  1029.8  0.3  761  305           
15 28.10.11 340 (С) 10 км    10/10 600 м 
[Sc]
+0.9 -5.5 62 1030.9  762  307           
18 28.10.11 010 (С) 10 км    10/10 600 м 
[Sc]
+0.4 -5.9 63 +1  1031.1  0.2  762  307    +1.6       
21 28.10.11 310 (СЗ) 10 км    10/10 600 м 
[Sc]
+0.3 -5.6 65 +1  1030.8  -0.3  762  307           
00 29.10.11 310 (СЗ) 10 км    10/10 600 м 
[Sc]
-0.1 -5.5 67 -1  1030.6  -0.2  762  308           
03 29.10.11 290 (З) 10 км    10/10 600 м 
[Sc]
-0.2 -4.9 71 -1  1029.7  -0.9  761  307           
06 29.10.11 270 (З) >10 км    10/10 600 м 
[Sc]
+0.2 -4.7 70 -1  1028.7  -1  760  307  -0.5         
09 29.10.11 270 (З) >10 км    10/10 600 м 
[Sc]
+1.2 -3.3 72 +1  1027.1  -1.5  759  305           
12 29.10.11 250 (З) >10 км  слаб. снег  10/10 600 м 
[Sc]
+1.7 -2.4 74 1025  -2  758  304           
15 29.10.11 250 (З) 10 км  {снег}  10/10 600 м 
[Sc]
+1.6 -2.2 76 1023.2  -1.8  756  303           
18 29.10.11 270 (З) 10 км    10/10 600 м 
[Sc]
+1.2 -2 79 1020.3  -2.9  754  303    +1.8  0.0     
21 29.10.11 250 (З) 10 км    10/10 600 м 
[Sc]
+1.1 -1.5 83 1017.7  -2.6  752  302           
00 30.10.11 280 (З) 10 км    10/10 600 м 
[Sc]
+2 -0.5 84 1015.9  -1.6  751  300           
03 30.10.11 260 (З) 10 км  в посл. час снег  10/10 600 м 
[Sc]
+1.9 +0 87 1013.9  -2  749  300           
06 30.10.11 290 (З) 10 км  {снег}  10/10 600 м 
[Sc]
+2.6 +1.3 91 +1  1012.4  -1.5  748  298  +1.1    0.0     
09 30.10.11 290 (З) 10 км    10/10 600 м 
[Sc]
+4.2 +2.2 87 +3  1011  -1.2  747  296           
12 30.10.11 300 (СЗ) 10 км    10/10 600 м 
[Sc]
+5.5 +2.6 82 +4  1010.5  -0.4  747  295           
15 30.10.11 280 (З) 10 км  слаб. дождь  10/10 600 м 
[Sc]
+5.2 +2.5 83 +4  1010.8  0.2  747  295           
18 30.10.11 290 (З) 10 км  {дождь}  10/10 600 м 
[Sc]
+5.1 +2.4 83 +5  1010.9  0.1  747  295    +5.5  0.0     
21 30.10.11 300 (СЗ) 10 км    10/10 600 м 
[Sc]
+4.9 +2.2 83 +5  1011.1  0.2  747  295           
00 31.10.11 290 (З) 10 км    10/0 средняя 
[Ac cast]
+4.2 +1.9 85 +4  1011.2  0.1  747  296           
03 31.10.11 тихо ()   10 км    10/0 средняя 
[Ac cast]
+3.9 +1.9 87 +4  1011.2  747  297           
06 31.10.11 280 (З) 10 км    10/10 600 м 
[Sc]
+4.3 +2.3 87 +5  1011  -0.2  747  296  +3.4    0.0     
09 31.10.11 тихо ()   10 км    10/10 600 м 
[Sc]
+5.4 +2.7 83 +5  1010.7  -0.2  747  295           
12 31.10.11 250 (З) 10 км    10/10 600 м 
[Sc]
+5.6 +1.9 77 +6  1010.5  -0.2  747  295           
15 31.10.11 270 (З) 10 км    10/10 600 м 
[Sc]
+4.7 +2.2 84 +6  1010.4  -0.2  747  295           
18 31.10.11 240 (ЮЗ) 10 км  в посл. час морось  10/10 200 м 
[Frnb]
+4.2 +3 92 +4  1009.8  -0.6  746  296    +5.7       
21 31.10.11 250 (З) 10 км  {дождь, морось}  10/10 200 м 
[Frnb]
+3.9 +2.7 92 +3  1009.1  -0.7  746  296           
00 01.11.11 190 (Ю) 10 км  {дождь}  10/10 600 м 
[Sc]
+3.5 +1.4 86 +4  1008.2  -0.9  745  296           
03 01.11.11 190 (Ю) 10 км    10/10 200 м 
[St]
+3.4 +1.9 90 +4  1007.2  -1  744  296           
06 01.11.11 180 (Ю) 4000 м  слаб. морось  10/10 200 м 
[St]
+4 +2.5 90 +5  1006.6  -0.6  744  295  +3.3    0.3     
Время (UTC), дата Ветер
(°,м/с) 
Видим.   Явления Облачность Т
(°С)
Тd
(°С)
f(%) Тe
(°С)
Pmin
(гПа)
dP
(гПа)
Po
(мм)
O2
(г/м3)
Тmin Tmax R s Состояние
почвы